TimeCST,TemperatureF,Dew PointF,Humidity,Sea Level PressureIn,VisibilityMPH,Wind Direction,Wind SpeedMPH,Gust SpeedMPH,PrecipitationIn,Events,Conditions,WindDirDegrees,DateUTC
12:15 AM,24.8,19.4,80,30.25,10.0,SE,8.1,-,N/A,,Clear,130,2013-01-18 06:15:00
12:35 AM,24.8,19.4,80,30.24,10.0,SE,10.4,-,N/A,,Clear,140,2013-01-18 06:35:00
12:55 AM,26.6,19.4,74,30.23,10.0,SE,9.2,-,N/A,,Clear,140,2013-01-18 06:55:00
1:15 AM,26.6,19.4,74,30.23,10.0,ESE,5.8,-,N/A,,Clear,120,2013-01-18 07:15:00
1:35 AM,26.6,21.2,80,30.22,10.0,SE,8.1,-,N/A,,Clear,130,2013-01-18 07:35:00
1:55 AM,26.6,21.2,80,30.20,10.0,SE,10.4,-,N/A,,Clear,130,2013-01-18 07:55:00
2:15 AM,26.6,21.2,80,30.20,10.0,SE,10.4,-,N/A,,Clear,140,2013-01-18 08:15:00
2:35 AM,26.6,21.2,80,30.19,10.0,SSE,12.7,-,N/A,,Clear,150,2013-01-18 08:35:00
2:55 AM,26.6,21.2,80,30.17,10.0,SSE,13.8,-,N/A,,Clear,150,2013-01-18 08:55:00
3:15 AM,26.6,21.2,80,30.15,10.0,SSE,12.7,-,N/A,,Clear,150,2013-01-18 09:15:00
3:35 AM,26.6,21.2,80,30.13,10.0,SSE,13.8,-,N/A,,Clear,150,2013-01-18 09:35:00
3:55 AM,26.6,21.2,80,30.11,10.0,SSE,15.0,18.4,N/A,,Clear,160,2013-01-18 09:55:00
4:15 AM,26.6,21.2,80,30.09,10.0,SSE,12.7,-,N/A,,Clear,160,2013-01-18 10:15:00
4:35 AM,26.6,21.2,80,30.08,10.0,SSE,11.5,-,N/A,,Clear,160,2013-01-18 10:35:00
4:55 AM,26.6,23.0,86,30.07,10.0,SSE,11.5,-,N/A,,Clear,160,2013-01-18 10:55:00
5:15 AM,28.4,23.0,80,30.06,10.0,SSE,10.4,-,N/A,,Clear,160,2013-01-18 11:15:00
5:35 AM,28.4,23.0,80,30.04,10.0,SSE,10.4,-,N/A,,Clear,160,2013-01-18 11:35:00
5:55 AM,28.4,24.8,86,30.02,10.0,South,12.7,-,N/A,,Clear,170,2013-01-18 11:55:00
6:15 AM,30.2,24.8,80,30.00,10.0,South,13.8,-,N/A,,Clear,180,2013-01-18 12:15:00
6:35 AM,30.2,24.8,80,29.98,10.0,South,17.3,24.2,N/A,,Clear,180,2013-01-18 12:35:00
6:55 AM,32.0,26.6,80,29.96,10.0,South,16.1,23.0,N/A,,Clear,190,2013-01-18 12:55:00
7:15 AM,32.0,26.6,80,29.95,10.0,South,19.6,25.3,N/A,,Clear,190,2013-01-18 13:15:00
7:35 AM,32.0,26.6,80,29.94,10.0,South,18.4,28.8,N/A,,Clear,190,2013-01-18 13:35:00
7:55 AM,32.0,26.6,80,29.94,10.0,SSW,18.4,-,N/A,,Clear,200,2013-01-18 13:55:00
8:15 AM,32.0,26.6,80,29.94,10.0,SSW,15.0,-,N/A,,Clear,200,2013-01-18 14:15:00
8:35 AM,32.0,26.6,80,29.94,10.0,SSW,13.8,18.4,N/A,,Clear,210,2013-01-18 14:35:00
8:55 AM,32.0,26.6,80,29.94,10.0,SSW,13.8,21.9,N/A,,Clear,210,2013-01-18 14:55:00
9:15 AM,33.8,26.6,75,29.93,10.0,SSW,16.1,19.6,N/A,,Clear,210,2013-01-18 15:15:00
9:35 AM,33.8,26.6,75,29.92,10.0,SW,18.4,23.0,N/A,,Clear,220,2013-01-18 15:35:00
9:55 AM,35.6,28.4,75,29.90,10.0,SSW,20.7,26.5,N/A,,Clear,210,2013-01-18 15:55:00
10:15 AM,37.4,28.4,70,29.90,10.0,SSW,18.4,28.8,N/A,,Clear,210,2013-01-18 16:15:00
10:35 AM,37.4,28.4,70,29.90,10.0,SW,19.6,28.8,N/A,,Clear,220,2013-01-18 16:35:00
10:55 AM,37.4,28.4,70,29.89,10.0,SW,23.0,28.8,N/A,,Clear,220,2013-01-18 16:55:00
11:15 AM,39.2,28.4,65,29.87,10.0,SW,20.7,26.5,N/A,,Clear,230,2013-01-18 17:15:00
11:35 AM,41.0,30.2,65,29.86,10.0,SW,20.7,29.9,N/A,,Clear,220,2013-01-18 17:35:00
11:55 AM,41.0,30.2,65,29.84,10.0,SW,20.7,26.5,N/A,,Clear,220,2013-01-18 17:55:00
12:15 PM,41.0,30.2,65,29.82,10.0,SW,20.7,32.2,N/A,,Clear,230,2013-01-18 18:15:00
12:35 PM,42.8,30.2,61,29.81,10.0,SW,19.6,25.3,N/A,,Clear,230,2013-01-18 18:35:00
12:55 PM,42.8,30.2,61,29.80,10.0,SW,18.4,25.3,N/A,,Clear,230,2013-01-18 18:55:00
1:15 PM,42.8,30.2,61,29.80,10.0,SW,20.7,24.2,N/A,,Clear,230,2013-01-18 19:15:00
1:35 PM,42.8,30.2,61,29.80,10.0,SW,19.6,26.5,N/A,,Clear,230,2013-01-18 19:35:00
1:55 PM,42.8,30.2,61,29.80,10.0,SW,18.4,24.2,N/A,,Clear,230,2013-01-18 19:55:00
2:15 PM,42.8,32.0,66,29.79,10.0,SW,18.4,23.0,N/A,,Clear,230,2013-01-18 20:15:00
2:35 PM,42.8,32.0,66,29.79,10.0,SW,18.4,26.5,N/A,,Clear,230,2013-01-18 20:35:00
2:55 PM,42.8,32.0,66,29.79,10.0,SW,17.3,21.9,N/A,,Clear,230,2013-01-18 20:55:00
3:15 PM,44.6,32.0,61,29.79,10.0,SW,17.3,23.0,N/A,,Clear,230,2013-01-18 21:15:00
3:35 PM,42.8,32.0,66,29.78,10.0,SW,17.3,24.2,N/A,,Clear,220,2013-01-18 21:35:00
3:55 PM,42.8,32.0,66,29.79,10.0,SW,15.0,19.6,N/A,,Clear,230,2013-01-18 21:55:00
4:15 PM,42.8,32.0,66,29.79,10.0,SW,13.8,21.9,N/A,,Clear,230,2013-01-18 22:15:00
4:35 PM,41.0,32.0,70,29.80,10.0,SW,15.0,21.9,N/A,,Clear,230,2013-01-18 22:35:00
4:55 PM,41.0,32.0,70,29.81,10.0,SW,13.8,-,N/A,,Clear,230,2013-01-18 22:55:00
5:15 PM,37.4,32.0,81,29.82,10.0,SW,10.4,-,N/A,,Clear,230,2013-01-18 23:15:00
5:35 PM,37.4,32.0,81,29.82,10.0,WSW,8.1,-,N/A,,Clear,240,2013-01-18 23:35:00
5:55 PM,35.6,32.0,87,29.82,10.0,WSW,5.8,-,N/A,,Clear,240,2013-01-18 23:55:00
6:15 PM,35.6,30.2,81,29.84,10.0,WSW,4.6,-,N/A,,Clear,240,2013-01-19 00:15:00
6:35 PM,33.8,30.2,87,29.82,10.0,WSW,3.5,-,N/A,,Clear,240,2013-01-19 00:35:00
6:55 PM,33.8,30.2,87,29.84,10.0,WSW,3.5,-,N/A,,Clear,240,2013-01-19 00:55:00
7:15 PM,33.8,30.2,87,29.84,10.0,SW,4.6,-,N/A,,Clear,230,2013-01-19 01:15:00
7:35 PM,33.8,30.2,87,29.84,10.0,SW,5.8,-,N/A,,Clear,230,2013-01-19 01:35:00
7:55 PM,33.8,30.2,87,29.84,10.0,SW,5.8,-,N/A,,Clear,230,2013-01-19 01:55:00
8:15 PM,33.8,30.2,87,29.83,10.0,SW,8.1,-,N/A,,Clear,230,2013-01-19 02:15:00
8:35 PM,32.0,30.2,93,29.84,10.0,Calm,Calm,-,N/A,,Clear,0,2013-01-19 02:35:00
8:55 PM,32.0,30.2,93,29.83,10.0,SW,5.8,-,N/A,,Clear,230,2013-01-19 02:55:00
9:15 PM,32.0,30.2,93,29.84,10.0,SW,4.6,-,N/A,,Clear,230,2013-01-19 03:15:00
9:35 PM,32.0,30.2,93,29.84,10.0,SW,5.8,-,N/A,,Clear,220,2013-01-19 03:35:00
10:15 PM,32.0,30.2,93,29.84,10.0,SW,4.6,-,N/A,,Clear,220,2013-01-19 04:15:00
10:35 PM,32.0,30.2,93,29.84,10.0,SW,5.8,-,N/A,,Clear,220,2013-01-19 04:35:00
10:55 PM,32.0,30.2,93,29.82,10.0,Calm,Calm,-,N/A,,Clear,0,2013-01-19 04:55:00
11:15 PM,32.0,30.2,93,29.82,10.0,SW,3.5,-,N/A,,Clear,220,2013-01-19 05:15:00
11:35 PM,32.0,30.2,93,29.81,10.0,SW,4.6,-,N/A,,Clear,220,2013-01-19 05:35:00
11:55 PM,32.0,32.0,100,29.81,10.0,SW,3.5,-,N/A,,Clear,220,2013-01-19 05:55:00